COSMOS 2251 DEB, 33791

Orbit data source: Space-Track

COSMOS 2251 DEB, 33791 is space debris in LEO originally from a launch on Wed, 16 Jun 1993 UTC launched from the Plesetsk Missile And Space Complex (PKMTR). The debris from Iridium 33, an American commercial communications satellite, has been tracked extensively since its accidental collision with the defunct Russian satellite Cosmos 2251 in 2009. This event, occurring at high speed in low Earth orbit (LEO), generated thousands of pieces of space debris, significantly increasing the risk of further collisions. The Iridium 33 debris cloud has impacted space traffic management and orbital debris mitigation strategies, making it a subject of ongoing study in space situational awareness.

Loading next visibility...
Identifier
33791, 1993-036AG
Orbit
LEO
Country
Flag of CISCIS
Related business
Manufacturer
Unknown
Mission
Spacecraft
Bus & Motor
Unknown
Mass
Unknown
Launch date (UTC)
1993-06-16 (32 years ago)
Launch vehicle
Unknown
Launch site
Plesetsk Missile And Space Complex (PKMTR)
Object type
Payload
Rocket body
Debris
Shape & HBR
Unknown shape, 0.4 m
Radar Cross Section
Medium (>0.1 m² and <1 m²)

Expand to show TLE details & history
Last TLE update: 12 hours ago

TLE from 12 hours ago
0 COSMOS 2251 DEB
1 33791U 93036AG  25296.69282115  .00002606  00000-0  78481-3 0  9997
2 33791  74.1725 129.7193 0028759 336.4354  97.8502 14.42816593873307
Epoch: 2025-10-23T16:37Z
TLE epoch observation values (Epoch: 2025-10-23T16:37:39.747Z)
Latitude
68.15634°
Longitude
-107.34107°
Altitude
763.506 km
Speed
7.478 km/s
True Right ascension
11h 37m 41s
True Declination
68° 02' 15"
Sunlit
Object was in daylight at epoch
Visualization orbit readout
Latitude
Unknown
Longitude
Unknown
Altitude
Unknown
Speed
Unknown
Apparent Right ascension
Unknown
Apparent Declination
Unknown
Sunlit
N/A
Visualization observer readout
Local Sidereal Time
23:59:03
Azimuth
Unknown
Elevation
Unknown
Doppler factor
Unknown
Orbital elements
Apogee altitude
767.303 km
Perigee altitude
726.322 km
Semi-major axis
7,124.949 km
Eccentricity
0.00288
Inclination
74.1725°
RAAN
129.7193°
Arg. of periapsis
336.4354°
True anomaly
98.1765°
Mean anomaly
97.8502°
Eccentric anomaly
98.01337°
Mean motion
3.60886 °/min
Orbital period
99.75 mins
BSTAR
0.00078481
Loading maneuver chart data...
Computing Atmospheric mass density...

Documentation

Showing up to 5 results
|